This is the latest recevied weather packets stored in our database for station/object DJ4RO-13. If no packets are shown the sender has not sent any weather packets the latest 10 day(s).
| Time | Temp. | Humidity | Pressure | Rain* | Wind** | Luminosity | Snow |
|---|---|---|---|---|---|---|---|
| 1777270909 | 10° C | 50% | 1029.6 hPa | 0 mm | - | 220 W/m² | - |
| 1777270593 | 9.44° C | 51% | 1029.5 hPa | 0 mm | - | 206 W/m² | - |
| 1777270293 | 9.44° C | 52% | 1029.4 hPa | 0 mm | - | 194 W/m² | - |
| 1777269981 | 9.44° C | 54% | 1029.5 hPa | 0 mm | - | 183 W/m² | - |
| 1777269661 | 9.44° C | 57% | 1029.5 hPa | 0 mm | - | 171 W/m² | - |
| 1777269341 | 8.33° C | 56% | 1029.6 hPa | 0 mm | - | 160 W/m² | - |
| 1777269021 | 8.33° C | 56% | 1029.5 hPa | 0 mm | - | 148 W/m² | - |
| 1777268701 | 8.33° C | 57% | 1029.4 hPa | 0 mm | - | 137 W/m² | - |
| 1777268381 | 7.78° C | 59% | 1029.3 hPa | 0 mm | - | 124 W/m² | - |
| 1777268061 | 6.67° C | 66% | 1029.6 hPa | 0 mm | - | 97 W/m² | - |
| 1777267741 | 6.11° C | 68% | 1029.5 hPa | 0 mm | - | 68 W/m² | - |
| 1777267421 | 5.56° C | 70% | 1029.5 hPa | 0 mm | - | 58 W/m² | - |
| 1777267101 | 5° C | 73% | 1029.5 hPa | 0 mm | - | 52 W/m² | - |
| 1777266781 | 2.78° C | 81% | 1029.6 hPa | 0 mm | - | 48 W/m² | - |
| 1777266461 | 1.67° C | 89% | 1029.7 hPa | 0 mm | - | 45 W/m² | - |
| 1777266142 | 0.56° C | 92% | 1029.7 hPa | 0 mm | - | 53 W/m² | - |
| 1777265821 | 0.56° C | 94% | 1029.4 hPa | 0 mm | - | 25 W/m² | - |
| 1777265501 | 0° C | 94% | 1029.5 hPa | 0 mm | - | 26 W/m² | - |
| 1777265181 | 0° C | 95% | 1029.5 hPa | 0 mm | - | 22 W/m² | - |
| 1777264862 | 0° C | 97% | 1029.5 hPa | 0 mm | - | 22 W/m² | - |
| 1777264541 | -0.56° C | 97% | 1029.3 hPa | 0 mm | - | 20 W/m² | - |
| 1777264221 | -1.11° C | 97% | 1029.3 hPa | 0 mm | - | 17 W/m² | - |
| 1777263901 | -1.67° C | 97% | 1029.3 hPa | 0 mm | - | 15 W/m² | - |
| 1777263581 | -1.67° C | 97% | 1029.4 hPa | 0 mm | - | 13 W/m² | - |
| 1777263245 | -1.11° C | 97% | 1029.2 hPa | 0 mm | - | 11 W/m² | - |
* Rain latest hour (hover to see other rain measurements)
** Current wind speed in m/s (hover to see current wind gust speed)